This demonstration page uses our WeatherBlox Daily Observations layout. Learn more.

Left ArrowRight Arrow

41.12389, -100.76542

Hourly Observations for March 2, 2019

Temp ( °F °C ) Dew Point ( °F °C ) Humidity (%) Winds ( mph kmh ) Pressure ( in mb ) Visibility ( mi km ) Precip ( " mm )
12:53 am 00:53 Cloudy 19 -7.2 14 -10 81 81 ENE 9 15 30.33 1027 10 16 0.00 0.00
1:53 am 01:53 Cloudy 18 -7.8 14 -10 84 84 ENE 8 13 30.35 1028 10 16 0.00 0.00
2:53 am 02:53 Cloudy 18 -7.8 13 -10.6 81 81 E 9 15 30.31 1027 10 16 0.00 0.00
3:53 am 03:53 Cloudy 18 -7.8 14 -10 84 84 E 6 9 30.30 1026 10 16 0.00 0.00
4:28 am 04:28 Cloudy with Light Snow 18 -7.8 14 -10 84 84 ESE 6 9 30.40 1029 3 4 0.00 0.03
4:39 am 04:39 Cloudy with Light Snow 18 -7.8 14 -10 84 84 E 7 11 30.40 1029 1 2 0.01 0.25
4:53 am 04:53 Mostly Cloudy with Light Snow 18 -7.8 14 -10 84 84 E 7 11 30.30 1026 1 2 0.01 0.25
5:15 am 05:15 Cloudy with Light Snow 18 -7.8 14 -10 84 84 E 7 11 30.42 1030 2 2 0.01 0.25
5:35 am 05:35 Mostly Cloudy with Light Snow 18 -7.8 14 -10 84 84 ENE 6 9 30.42 1030 1 2 0.02 0.51
5:50 am 05:50 Mostly Cloudy with Light Snow 18 -8 14 -10 86 86 ENE 6 9 30.43 1030 1 1 0.03 0.76
5:53 am 05:53 Mostly Cloudy with Light Snow 18 -7.8 14 -10 84 84 ENE 7 11 30.34 1027 1 1 0.04 1.02
6:16 am 06:16 Mostly Cloudy with Light Snow 18 -7.8 14 -10 84 84 E 6 9 30.44 1031 1 1 0.02 0.51
6:46 am 06:46 Mostly Cloudy with Light Snow 18 -7.8 14 -10 84 84 ESE 7 11 30.44 1031 1 2 0.05 1.27
6:53 am 06:53 Mostly Cloudy with Light Snow 18 -7.8 15 -9.4 88 88 ESE 6 9 30.36 1028 1 2 0.06 1.52
7:04 am 07:04 Mostly Cloudy with Light Snow 18 -7.8 15 -9.4 88 88 ESE 7 11 30.45 1031 1 1 0.01 0.25
7:11 am 07:11 Mostly Cloudy with Light Snow 18 -7.8 15 -9.4 88 88 ESE 6 9 30.45 1031 1 1 0.01 0.25
7:38 am 07:38 Mostly Cloudy with Snow 17 -8.3 14 -10 88 88 E 10 17 30.46 1032 0 0 0.04 1.02
7:51 am 07:51 Mostly Cloudy with Snow 18 -8 14 -10 86 86 E 9 15 30.47 1032 1 1 0.05 1.27
7:52 am 07:52 Mostly Cloudy with Snow 17 -8.3 14 -10 88 88 E 9 15 30.39 1029 1 1 0.05 1.27
8:10 am 08:10 Mostly Cloudy with Heavy Snow 17 -8.3 14 -10 88 88 E 12 19 30.46 1032 0 0 0.02 0.51
8:25 am 08:25 Mostly Cloudy with Snow 17 -8.3 13 -10.6 84 84 E 13 20 30.46 1032 1 1 0.03 0.76
8:43 am 08:43 Mostly Cloudy with Light Snow 17 -8.3 13 -10.6 84 84 E 17 28 30.47 1032 1 1 0.03 0.76
8:53 am 08:53 Cloudy with Light Snow 17 -8.3 13 -10.6 84 84 E 13 20 30.40 1029 1 2 0.03 0.76
9:16 am 09:16 Cloudy with Light Snow 17 -8.3 12 -11.1 80 80 E 15 24 30.49 1033 1 1 0.01 0.25
9:23 am 09:23 Cloudy with Light Snow 17 -8.3 12 -11.1 80 80 E 14 22 30.49 1033 1 2 0.01 0.25
9:39 am 09:39 Cloudy with Light Snow 17 -8.3 12 -11.1 80 80 E 15 24 30.50 1033 1 2 0.01 0.25
9:46 am 09:46 Cloudy with Light Snow 17 -8.3 12 -11.1 80 80 E 14 22 30.50 1033 1 2 0.01 0.25
9:53 am 09:53 Cloudy with Light Snow 17 -8.3 12 -11.1 80 80 E 14 22 30.43 1030 1 2 0.01 0.25
10:15 am 10:15 Cloudy with Light Snow 17 -8.3 12 -11.1 80 80 E 17 28 30.49 1033 2 2 0.00 0.03
10:28 am 10:28 Cloudy with Light Snow 17 -8.3 11 -11.7 77 77 E 15 24 30.51 1033 1 2 0.01 0.25
10:40 am 10:40 Cloudy with Light Snow 17 -8.3 12 -11.1 80 80 E 12 19 30.52 1034 1 1 0.01 0.25
10:53 am 10:53 Cloudy with Light Snow 17 -8.3 12 -11.1 80 80 E 12 19 30.45 1031 1 2 0.01 0.25
10:59 am 10:59 Cloudy with Light Snow 17 -8.3 12 -11.1 80 80 E 9 15 30.51 1033 2 3 0.00 0.03
11:09 am 11:09 Cloudy with Light Snow 17 -8.3 11 -11.7 77 77 E 12 19 30.51 1033 4 6 0.00 0.03
11:29 am 11:29 Cloudy with Light Snow 17 -8.3 11 -11.7 77 77 E 13 20 30.52 1034 4 6 0.01 0.25
11:53 am 11:53 Cloudy with Light Snow 17 -8.3 10 -12.2 74 74 E 12 19 30.45 1031 3 5 0.01 0.25
12:53 pm 12:53 Cloudy 18 -7.8 11 -11.7 74 74 E 14 22 30.43 1030 10 16 0.00 0.03
1:20 pm 13:20 Cloudy 17 -8.3 10 -12.2 74 74 E 16 26 30.50 1033 10 16 0.00 0.00
1:53 pm 13:53 Cloudy with Light Snow 17 -8.3 9 -12.8 70 70 E 16 26 30.42 1030 5 8 0.00 0.03
2:10 pm 14:10 Cloudy with Light Snow 16 -8.9 9 -12.8 74 74 ENE 15 24 30.50 1033 3 4 0.00 0.03
2:32 pm 14:32 Cloudy with Light Snow 15 -9.4 8 -13.3 74 74 ENE 15 24 30.51 1033 2 3 0.00 0.03
2:53 pm 14:53 Cloudy with Light Snow 14 -10 7 -13.9 73 73 ENE 17 28 30.44 1031 2 3 0.00 0.03
3:06 pm 15:06 Cloudy with Light Snow 14 -10 7 -13.9 73 73 ENE 17 28 30.54 1034 3 5 0.00 0.03
3:50 pm 15:50 Cloudy with Light Snow 14 -10 7 -14 73 73 ENE 14 22 30.54 1034 4 6 0.00 0.03
3:53 pm 15:53 Cloudy with Light Snow 13 -10.6 6 -14.4 74 74 ENE 16 26 30.46 1031 3 5 0.00 0.03
4:05 pm 16:05 Cloudy with Light Snow 13 -10.6 6 -14.4 74 74 ENE 15 24 30.55 1035 3 4 0.00 0.03
4:14 pm 16:14 Cloudy with Light Snow 13 -10.6 6 -14.4 74 74 ENE 16 26 30.55 1035 4 6 0.00 0.03
4:53 pm 16:53 Cloudy 12 -11.1 5 -15 73 73 E 15 24 30.47 1032 7 11 0.00 0.03
5:23 pm 17:23 Cloudy 12 -11.1 5 -15 73 73 ENE 14 22 30.57 1035 8 13 0.00 0.03
5:49 pm 17:49 Cloudy with Light Snow 10 -12 3 -16 72 72 NE 18 30 30.59 1036 3 4 0.00 0.03
5:53 pm 17:53 Windy with Snow Likely 10 -12.2 4 -15.6 76 76 ENE 20 31 30.48 1032 3 4 0.00 0.03
6:00 pm 18:00 Cloudy with Light Snow 10 -12.2 4 -15.6 76 76 ENE 18 30 30.59 1036 5 8 0.00 0.03
6:37 pm 18:37 Cloudy 9 -12.8 2 -16.7 73 73 NE 17 28 30.61 1037 9 14 0.00 0.03
6:53 pm 18:53 Cloudy 8 -13.3 2 -16.7 76 76 ENE 20 31 30.50 1033 9 14 0.00 0.03
7:53 pm 19:53 Cloudy 7 -13.9 0 -17.8 73 73 NE 18 30 30.51 1033 7 11 0.00 0.03
8:53 pm 20:53 Cloudy with Light Snow 6 -14.4 -1 -18.3 73 73 NE 16 26 30.53 1034 6 10 0.00 0.03
9:49 pm 21:49 Cloudy with Light Snow 3 -16 -2 -19 78 78 NE 17 28 30.66 1038 2 3 0.00 0.03
9:53 pm 21:53 Cloudy with Light Snow 4 -15.6 -2 -18.9 76 76 NE 17 28 30.53 1034 2 3 0.00 0.03
9:59 pm 21:59 Cloudy with Light Snow 4 -15.6 -2 -18.9 76 76 NE 17 28 30.66 1038 1 2 0.00 0.03
10:17 pm 22:17 Cloudy with Light Snow 3 -16.1 -3 -19.4 76 76 NE 16 26 30.67 1039 2 3 0.00 0.03
10:53 pm 22:53 Cloudy with Light Snow 3 -16.1 -3 -19.4 76 76 NE 10 17 30.55 1035 2 3 0.01 0.25
11:08 pm 23:08 Cloudy with Light Snow 2 -16.7 -4 -20 76 76 NE 13 20 30.70 1040 2 2 0.00 0.03
11:27 pm 23:27 Cloudy with Light Snow 2 -16.7 -4 -20 76 76 NE 7 11 30.70 1040 3 4 0.01 0.25
11:36 pm 23:36 Cloudy with Light Snow 2 -16.7 -4 -20 76 76 NE 9 15 30.70 1040 3 5 0.01 0.25
11:53 pm 23:53 Cloudy with Light Snow 2 -16.7 -5 -20.6 72 72 NNE 13 20 30.56 1035 5 8 0.01 0.25

Powered by AerisWeather